Find Starlink 1089

NORAD ID: 44967 Int'l Des: 2020-001 Owner: SPXS Country: US Constellation: starlink decayed
LEOCIRCULAR

Re-entered — 12. Okt. 2024

3D-Globus wird geladen...

About Starlink 1089

Starlink 1089 (NORAD 44967) is a starlink constellation satellite (v1.0) launched Jan 7, 2020 by SPXS of US. It re-entered the atmosphere on Oct 12, 2024. with a mass of 260.00 kg.

Über Starlink 1089

Beschreibung wird geladen...

Höhenverlauf

Loading altitude history...

Zweizeiliger Elementsatz

1 44967U 20001BF 24285.86183704 .06577417 19780+0 69882-2 0 9997
2 44967 53.0463 66.7096 0008820 299.3568 199.5674 16.16959569263321
Epoch: 11. Okt. 2024 • Age: 14747 hours

Aktueller Status

Position data unavailable
Startdatum 7. Jan. 2020
Alter 6.4 years
Verglühungsdatum 12. Okt. 2024
Typ internet

Technische Details

Klassifizierung Payload
Masse 260.00 kg
Trockenmasse 248.00 kg
Gesamtmasse 260.00 kg
Länge 0.20 m
Durchmesser 2.80 m
Spannweite 9.00 m
Form Box + pan
Hersteller SPXS
Bus-Typ Starlink
Phasenstatus Unknown Transfer Status
Besitzer/Staat SPXS/US

Most Searched